| time (UTC) | temp F | wind direction | speed MPH | gust MPH | rain 1hr in | rain 24hr in | rain mn in | humidity % | barometer mb |
| 20260904174128 | 71 | 194 | 1.0 | 5.0 | 0.00 | 0.00 | 0.00 | 65 | 969.8 |
| 20260904173056 | 70 | 171 | 1.0 | 5.0 | 0.00 | 0.00 | 0.00 | 66 | 969.7 |
| 20260904172035 | 70 | 229 | 1.0 | 5.0 | 0.00 | 0.00 | 0.00 | 65 | 969.6 |
| 20260904171004 | 71 | 224 | 0.0 | 5.0 | 0.00 | 0.00 | 0.00 | 63 | 969.6 |
| 20260904170004 | 71 | 180 | 0.0 | 4.0 | 0.00 | 0.00 | 0.00 | 63 | 969.5 |
| 20260904164934 | 70 | 221 | 0.0 | 1.0 | 0.00 | 0.00 | 0.00 | 66 | 969.3 |
| 20260904162828 | 68 | 221 | 0.0 | 3.0 | 0.00 | 0.00 | 0.00 | 72 | 969.2 |
| 20260904161822 | 67 | 218 | 0.0 | 0.0 | 0.00 | 0.00 | 0.00 | 78 | 969.3 |
| 20260904160822 | 66 | 218 | 0.0 | 1.0 | 0.00 | 0.00 | 0.00 | 80 | 969.1 |
| 20260904155825 | 65 | 218 | 0.0 | 3.0 | 0.00 | 0.00 | 0.00 | 80 | 969.1 |
| 20260904154754 | 64 | 200 | 0.0 | 3.0 | 0.00 | 0.00 | 0.00 | 87 | 969.1 |
| 20260904153817 | 63 | 200 | 0.0 | 0.0 | 0.00 | 0.00 | 0.00 | 91 | 969.1 |
| 20260904152748 | 62 | 200 | 0.0 | 0.0 | 0.00 | 0.00 | 0.00 | 95 | 969.1 |
| 20260904151737 | 62 | 200 | 0.0 | 0.0 | 0.00 | 0.00 | 0.00 | 95 | 969.0 |
| 20260904150743 | 62 | 200 | 0.0 | 0.0 | 0.00 | 0.00 | 0.00 | 96 | 969.0 |
| 20260904145746 | 61 | 200 | 0.0 | 0.0 | 0.00 | 0.00 | 0.00 | 96 | 968.9 |
| 20260904144733 | 61 | 200 | 0.0 | 0.0 | 0.00 | 0.00 | 0.00 | 97 | 968.7 |
| 20260904143739 | 61 | 200 | 0.0 | 0.0 | 0.00 | 0.00 | 0.00 | 96 | 968.7 |
| 20260904142738 | 60 | 200 | 0.0 | 0.0 | 0.00 | 0.00 | 0.00 | 96 | 968.5 |
| 20260904141708 | 60 | 200 | 0.0 | 0.0 | 0.00 | 0.00 | 0.00 | 96 | 968.4 |
| 20260904140705 | 60 | 200 | 0.0 | 0.0 | 0.00 | 0.00 | 0.00 | 96 | 968.3 |
| 20260904135654 | 60 | 200 | 0.0 | 0.0 | 0.00 | 0.00 | 0.00 | 96 | 968.1 |
| 20260904134705 | 60 | 200 | 0.0 | 0.0 | 0.00 | 0.00 | 0.00 | 96 | 968.0 |
| 20260904133718 | 60 | 200 | 0.0 | 0.0 | 0.00 | 0.00 | 0.00 | 96 | 968.0 |
| 20260904132723 | 60 | 200 | 0.0 | 0.0 | 0.00 | 0.00 | 0.00 | 96 | 968.0 |
| 20260904131728 | 60 | 200 | 0.0 | 0.0 | 0.00 | 0.00 | 0.00 | 95 | 967.9 |
| 20260904130657 | 60 | 200 | 0.0 | 0.0 | 0.00 | 0.00 | 0.00 | 95 | 968.0 |
| 20260904125637 | 60 | 200 | 0.0 | 0.0 | 0.00 | 0.00 | 0.00 | 95 | 968.0 |
| 20260904124631 | 60 | 200 | 0.0 | 0.0 | 0.00 | 0.00 | 0.00 | 95 | 967.9 |
| 20260904123652 | 60 | 200 | 0.0 | 0.0 | 0.00 | 0.00 | 0.00 | 95 | 967.9 |
| 20260904122639 | 60 | 200 | 0.0 | 0.0 | 0.00 | 0.00 | 0.00 | 95 | 967.8 |
| 20260904121639 | 60 | 200 | 0.0 | 0.0 | 0.00 | 0.00 | 0.00 | 95 | 967.9 |
| 20260904120652 | 60 | 200 | 0.0 | 0.0 | 0.00 | 0.00 | 0.00 | 95 | 967.9 |
| 20260904115626 | 61 | 200 | 0.0 | 0.0 | 0.00 | 0.00 | 0.00 | 95 | 967.8 |
| 20260904113500 | 61 | 200 | 0.0 | 0.0 | 0.00 | 0.00 | 0.00 | 95 | 967.9 |
| 20260904112452 | 61 | 200 | 0.0 | 0.0 | 0.00 | 0.00 | 0.00 | 95 | 967.9 |
| 20260904111454 | 61 | 200 | 0.0 | 0.0 | 0.00 | 0.00 | 0.00 | 95 | 967.9 |
| 20260904110520 | 61 | 200 | 0.0 | 0.0 | 0.00 | 0.00 | 0.00 | 95 | 968.0 |
| 20260904105500 | 61 | 200 | 0.0 | 0.0 | 0.00 | 0.00 | 0.00 | 95 | 967.9 |
| 20260904102134 | 61 | 200 | 0.0 | 0.0 | 0.00 | 0.00 | 0.00 | 94 | 967.9 |
| 20260904101154 | 61 | 200 | 0.0 | 0.0 | 0.00 | 0.00 | 0.00 | 94 | 967.8 |
| 20260904100153 | 61 | 200 | 0.0 | 0.0 | 0.00 | 0.00 | 0.00 | 94 | 967.9 |
| 20260904094041 | 60 | 200 | 0.0 | 0.0 | 0.00 | 0.00 | 0.00 | 93 | 967.8 |
| 20260904093015 | 61 | 200 | 0.0 | 0.0 | 0.00 | 0.00 | 0.00 | 93 | 967.8 |
| 20260904092034 | 61 | 200 | 0.0 | 0.0 | 0.00 | 0.00 | 0.00 | 92 | 967.8 |
| 20260904091032 | 61 | 200 | 0.0 | 0.0 | 0.00 | 0.00 | 0.00 | 92 | 967.8 |
| 20260904084849 | 61 | 200 | 0.0 | 0.0 | 0.00 | 0.00 | 0.00 | 92 | 968.0 |
| 20260904083850 | 61 | 200 | 0.0 | 0.0 | 0.00 | 0.00 | 0.00 | 92 | 968.0 |
| 20260904082900 | 60 | 200 | 0.0 | 0.0 | 0.00 | 0.00 | 0.00 | 92 | 968.0 |
| 20260904081909 | 61 | 200 | 0.0 | 0.0 | 0.00 | 0.00 | 0.00 | 92 | 968.1 |
| 20260904080913 | 61 | 200 | 0.0 | 0.0 | 0.00 | 0.00 | 0.00 | 92 | 968.2 |
| 20260904075858 | 61 | 200 | 0.0 | 0.0 | 0.00 | 0.00 | 0.00 | 91 | 968.2 |
| 20260904073710 | 61 | 200 | 0.0 | 0.0 | 0.00 | 0.00 | 0.00 | 90 | 968.3 |
| 20260904071511 | 62 | 200 | 0.0 | 0.0 | 0.00 | 0.00 | 0.00 | 90 | 968.2 |
| 20260904070502 | 62 | 200 | 0.0 | 0.0 | 0.00 | 0.00 | 0.00 | 89 | 968.1 |
| 20260904065516 | 62 | 200 | 0.0 | 0.0 | 0.00 | 0.00 | 0.00 | 89 | 968.0 |
| 20260904064458 | 62 | 200 | 0.0 | 0.0 | 0.00 | 0.00 | 0.00 | 88 | 968.1 |
| 20260904062329 | 63 | 200 | 0.0 | 0.0 | 0.00 | 0.00 | 0.00 | 87 | 968.0 |
| 20260904060128 | 62 | 200 | 0.0 | 0.0 | 0.00 | 0.00 | 0.00 | 83 | 967.8 |
| 20260904055123 | 62 | 200 | 0.0 | 0.0 | 0.00 | 0.00 | 0.00 | 80 | 967.8 |
| 20260904053012 | 62 | 200 | 0.0 | 0.0 | 0.00 | 0.00 | 0.00 | 74 | 968.0 |
| 20260904052006 | 63 | 200 | 0.0 | 0.0 | 0.00 | 0.00 | 0.00 | 79 | 967.9 |
| 20260904051002 | 64 | 200 | 0.0 | 0.0 | 0.00 | 0.00 | 0.00 | 83 | 968.0 |
| 20260904050023 | 63 | 200 | 0.0 | 0.0 | 0.00 | 0.00 | 0.00 | 80 | 968.1 |
| 20260904043847 | 62 | 200 | 0.0 | 0.0 | 0.00 | 0.00 | 0.00 | 79 | 967.9 |
| 20260904042859 | 62 | 200 | 0.0 | 0.0 | 0.00 | 0.00 | 0.00 | 80 | 967.8 |
| 20260904041900 | 62 | 200 | 0.0 | 0.0 | 0.00 | 0.00 | 0.00 | 82 | 967.8 |
| 20260904040906 | 62 | 200 | 0.0 | 0.0 | 0.00 | 0.00 | 0.00 | 84 | 967.7 |
| 20260904035900 | 63 | 200 | 0.0 | 0.0 | 0.00 | 0.00 | 0.00 | 85 | 967.7 |
| 20260904033731 | 63 | 200 | 0.0 | 0.0 | 0.00 | 0.00 | 0.00 | 87 | 967.6 |
| 20260904032710 | 63 | 200 | 0.0 | 0.0 | 0.00 | 0.00 | 0.00 | 85 | 967.4 |
| 20260904031734 | 64 | 200 | 0.0 | 0.0 | 0.00 | 0.00 | 0.00 | 85 | 967.4 |
| 20260904030720 | 64 | 200 | 0.0 | 0.0 | 0.00 | 0.00 | 0.00 | 84 | 967.4 |
| 20260904025719 | 64 | 200 | 0.0 | 0.0 | 0.00 | 0.00 | 0.00 | 83 | 967.4 |
| 20260904024702 | 65 | 200 | 0.0 | 0.0 | 0.00 | 0.00 | 0.00 | 82 | 967.3 |
| 20260904023630 | 65 | 200 | 0.0 | 0.0 | 0.00 | 0.00 | 0.00 | 81 | 967.3 |
| 20260904022642 | 66 | 200 | 0.0 | 0.0 | 0.00 | 0.00 | 0.00 | 80 | 967.2 |
| 20260904021616 | 66 | 200 | 0.0 | 0.0 | 0.00 | 0.00 | 0.00 | 79 | 967.2 |
| 20260904020628 | 67 | 198 | 0.0 | 5.0 | 0.00 | 0.00 | 0.00 | 79 | 967.2 |
| 20260904015653 | 68 | 210 | 0.0 | 3.0 | 0.00 | 0.00 | 0.00 | 76 | 967.3 |
| 20260904014658 | 69 | 211 | 0.0 | 2.0 | 0.00 | 0.00 | 0.00 | 73 | 967.3 |
| 20260904013639 | 69 | 192 | 0.0 | 3.0 | 0.00 | 0.00 | 0.00 | 71 | 967.3 |
| 20260904012652 | 70 | 204 | 0.0 | 3.0 | 0.00 | 0.00 | 0.00 | 69 | 967.3 |
| 20260904011659 | 71 | 204 | 0.0 | 4.0 | 0.00 | 0.00 | 0.00 | 68 | 967.3 |
| 20260904010704 | 71 | 172 | 0.0 | 4.0 | 0.00 | 0.00 | 0.00 | 67 | 967.4 |
| 20260904005713 | 71 | 186 | 1.0 | 6.0 | 0.00 | 0.00 | 0.00 | 68 | 967.4 |
| 20260904004654 | 72 | 234 | 1.0 | 6.0 | 0.00 | 0.00 | 0.00 | 65 | 967.4 |
| 20260904001436 | 74 | 175 | 1.0 | 6.0 | 0.00 | 0.00 | 0.00 | 61 | 967.5 |
| 20260904000432 | 74 | 198 | 1.0 | 7.0 | 0.00 | 0.00 | 0.00 | 62 | 967.6 |
| 20260903235403 | 74 | 169 | 2.0 | 7.0 | 0.00 | 0.00 | 0.00 | 61 | 967.5 |
| 20260903234343 | 75 | 235 | 2.0 | 6.0 | 0.00 | 0.00 | 0.00 | 60 | 967.5 |
| 20260903232217 | 74 | 182 | 3.0 | 10.0 | 0.00 | 0.00 | 0.00 | 60 | 967.8 |
| 20260903231241 | 73 | 185 | 3.0 | 10.0 | 0.00 | 0.00 | 0.00 | 62 | 967.9 |
| 20260903230251 | 74 | 211 | 2.0 | 9.0 | 0.00 | 0.00 | 0.00 | 61 | 968.0 |
| 20260903225225 | 74 | 232 | 2.0 | 9.0 | 0.00 | 0.00 | 0.00 | 61 | 968.0 |
| 20260903224232 | 74 | 225 | 2.0 | 9.0 | 0.00 | 0.00 | 0.00 | 61 | 968.0 |
| 20260903223211 | 75 | 235 | 2.0 | 7.0 | 0.00 | 0.00 | 0.00 | 61 | 968.1 |
| 20260903222229 | 75 | 169 | 1.0 | 10.0 | 0.00 | 0.00 | 0.00 | 59 | 968.3 |
| 20260903221221 | 75 | 283 | 2.0 | 10.0 | 0.00 | 0.00 | 0.00 | 61 | 968.3 |
| 20260903220154 | 75 | 198 | 2.0 | 9.0 | 0.00 | 0.00 | 0.00 | 60 | 968.5 |
| 20260903215131 | 75 | 227 | 2.0 | 9.0 | 0.00 | 0.00 | 0.00 | 60 | 968.6 |
| 20260903214155 | 75 | 178 | 2.0 | 8.0 | 0.00 | 0.00 | 0.00 | 58 | 968.6 |
| 20260903213202 | 75 | 192 | 3.0 | 8.0 | 0.00 | 0.00 | 0.00 | 60 | 968.6 |
| 20260903212150 | 76 | 205 | 2.0 | 7.0 | 0.00 | 0.00 | 0.00 | 59 | 968.6 |
| 20260903211126 | 75 | 240 | 2.0 | 8.0 | 0.00 | 0.00 | 0.00 | 59 | 968.7 |
| 20260903205006 | 75 | 175 | 3.0 | 8.0 | 0.00 | 0.00 | 0.00 | 59 | 968.9 |
| 20260903204016 | 74 | 167 | 3.0 | 8.0 | 0.00 | 0.00 | 0.00 | 61 | 968.9 |
| 20260903203015 | 74 | 254 | 2.0 | 8.0 | 0.00 | 0.00 | 0.00 | 61 | 968.8 |
| 20260903202027 | 75 | 242 | 2.0 | 7.0 | 0.00 | 0.00 | 0.00 | 60 | 968.8 |
| 20260903201030 | 75 | 234 | 1.0 | 7.0 | 0.00 | 0.00 | 0.00 | 60 | 968.8 |
| 20260903200054 | 75 | 247 | 1.0 | 5.0 | 0.00 | 0.00 | 0.00 | 60 | 968.9 |
| 20260903195109 | 76 | 223 | 1.0 | 5.0 | 0.00 | 0.00 | 0.00 | 59 | 969.0 |
| 20260903194118 | 76 | 212 | 1.0 | 8.0 | 0.00 | 0.00 | 0.00 | 59 | 969.0 |
| 20260903193050 | 76 | 261 | 2.0 | 8.0 | 0.00 | 0.00 | 0.00 | 59 | 969.1 |
| 20260903192035 | 76 | 146 | 1.0 | 5.0 | 0.00 | 0.00 | 0.00 | 59 | 969.2 |
| 20260903191041 | 75 | 257 | 1.0 | 6.0 | 0.00 | 0.00 | 0.00 | 61 | 969.3 |
| 20260903184856 | 75 | 221 | 1.0 | 6.0 | 0.00 | 0.00 | 0.00 | 57 | 969.6 |
| 20260903183855 | 75 | 202 | 1.0 | 6.0 | 0.00 | 0.00 | 0.00 | 57 | 969.7 |
| 20260903182902 | 74 | 183 | 1.0 | 6.0 | 0.00 | 0.00 | 0.00 | 58 | 969.9 |
| 20260903181920 | 74 | 228 | 1.0 | 6.0 | 0.00 | 0.00 | 0.00 | 60 | 970.0 |
| 20260903180941 | 73 | 146 | 0.0 | 6.0 | 0.00 | 0.00 | 0.00 | 62 | 970.0 |
| 20260903175950 | 72 | 203 | 1.0 | 6.0 | 0.00 | 0.00 | 0.00 | 62 | 970.1 |
| 20260903174953 | 72 | 113 | 1.0 | 7.0 | 0.00 | 0.00 | 0.00 | 63 | 970.1 |